Other Public Products
Issued by NWS Charleston, SC

Home | Current Version | Previous Version | Text Only | Print | Product List | Glossary On
Versions: 1 2 3 4 5 6 7 8 9 10 11 12 13 14 15 16 17 18 19 20 21 22 23 24 25 26 27 28 29 30 31 32 33 34 35 36 37 38 39 40 41 42 43 44 45 46 47 48 49 50
000
FPUS82 KCHS 290027
OPUCHS

TEST...KCHS/KSAV Gateway Observations...TEST
National Weather Service Charleston SC
800 PM EDT SUN MAY 28 2017

NOTE: "fair" indicates few or no clouds below 12,000 feet with no
significant weather and/or obstructions to visibility.

SCZ050-WAZ558-NCZ071-TXZ119-213-PAZ071-DCZ001-FLZ074-172-MI076-
NYZ176-178-MAZ016-IL014-TNZ027-NJZ106-GAZ044-MD014-290100-

...Gateway Observations for Charleston International...

CITY           SKY/WX    TMP DP  RH WIND       PRES   REMARKS
Chas Airport   PTCLDY    83  74  74 S8        29.86R
6HR MIN TEMP:  83; 6HR MAX TEMP:  91;

Seattle        MOSUNNY   86  48  26 N12       30.03F
6HR MIN TEMP:  69; 6HR MAX TEMP:  86;

Charlotte      MOCLDY    80  65  59 NW7       29.85R
6HR MIN TEMP:  80; 6HR MAX TEMP:  85;

Dallas DFW     CLOUDY    79  68  69 N6        29.89F
6HR MIN TEMP:  74; 6HR MAX TEMP:  80; 6HR PCP: TRACE;

Dallas Love    CLOUDY    79  67  66 VRB6      29.91F
6HR MIN TEMP:  72; 6HR MAX TEMP:  80; 6HR PCP:  0.03;

Philladelphia  LGT RAIN  65  58  78 E12       29.89S
6HR MIN TEMP:  65; 6HR MAX TEMP:  77; 6HR PCP: TRACE;

Wash National  LGT RAIN  68  65  90 NE6       29.85R
6HR MIN TEMP:  67; 6HR MAX TEMP:  68; 6HR PCP:  0.01;

Baltimore      LGT RAIN  65  64  97 E8        29.84S
6HR MIN TEMP:  65; 6HR MAX TEMP:  69; 6HR PCP:  0.14;

Miami          PTCLDY    90  70  51 W9        29.99S HX  95
6HR MIN TEMP:  90; 6HR MAX TEMP:  98;

Detroit        CLOUDY    64  58  80 W3        29.70R
6HR MIN TEMP:  63; 6HR MAX TEMP:  78; 6HR PCP:  0.04;

Newark         CLOUDY    63  50  62 SE9G16    29.94S
6HR MIN TEMP:  63; 6HR MAX TEMP:  71;

Laguardia      CLOUDY    65  49  56 SE10      29.94S
6HR MIN TEMP:  65; 6HR MAX TEMP:  71;

J F K          CLOUDY    62  54  74 E13       29.95S
6HR MIN TEMP:  62; 6HR MAX TEMP:  68;

Boston Logan   CLOUDY    63  52  67 S9        29.98R
6HR MIN TEMP:  57; 6HR MAX TEMP:  63;

Ft. Lauderdale PTCLDY    86  77  74 SE10      29.99S HX  97
6HR MIN TEMP:  86; 6HR MAX TEMP:  95;

Chicago O`Hare PTSUNNY   74  51  44 W10G21    29.73S
6HR MIN TEMP:  72; 6HR MAX TEMP:  77;

Chicago Midway PTSUNNY   75  52  44 W9        29.74R
6HR MIN TEMP:  67; 6HR MAX TEMP:  77; 6HR PCP:  0.01;

Houston Bush   PTSUNNY   87  74  64 S14       29.80F HX  95
6HR MIN TEMP:  87; 6HR MAX TEMP:  92;

Houston Hobby  PTSUNNY   84  75  74 S12       29.81F HX  92
6HR MIN TEMP:  84; 6HR MAX TEMP:  90;

Nashville      CLOUDY    77  62  59 W6        29.91S
6HR MIN TEMP:  76; 6HR MAX TEMP:  81;

Atlanta        MOCLDY    80  66  62 W9        29.94R
6HR MIN TEMP:  80; 6HR MAX TEMP:  85;


$$

GAZ044-118-TXZ119-213-NCZ071-DCZ001-MDZ014-506-PAZ021-071-NJZ106-
NYZ176-178-MAZ106-OHZ011-021-055-MIZ076-KYZ091-ILZ014-INZ047-
MNZ060-ONZ431-290100-

...Gateway Observations for Savannah International...

CITY           SKY/WX    TMP DP  RH WIND       PRES   REMARKS
Savannah Arpt  PTCLDY    89  65  44 SW6       29.87R HX  91
6HR MIN TEMP:  89; 6HR MAX TEMP:  97;

Atlanta        MOCLDY    80  66  62 W9        29.94R
6HR MIN TEMP:  80; 6HR MAX TEMP:  85;

Charlotte      MOCLDY    80  65  59 NW7       29.85R
6HR MIN TEMP:  80; 6HR MAX TEMP:  85;

Dallas DFW     CLOUDY    79  68  69 N6        29.89F
6HR MIN TEMP:  74; 6HR MAX TEMP:  80; 6HR PCP: TRACE;

Houston Bush   PTSUNNY   87  74  64 S14       29.80F HX  95
6HR MIN TEMP:  87; 6HR MAX TEMP:  92;

Wash National  LGT RAIN  68  65  90 NE6       29.85R
6HR MIN TEMP:  67; 6HR MAX TEMP:  68; 6HR PCP:  0.01;

Wash Dulles    CLOUDY    66  63  90 E5        29.84S
6HR MIN TEMP:  66; 6HR MAX TEMP:  68; 6HR PCP:  0.12;

Baltimore      LGT RAIN  65  64  97 E8        29.84S
6HR MIN TEMP:  65; 6HR MAX TEMP:  69; 6HR PCP:  0.14;

Philadelphia   LGT RAIN  65  58  78 E12       29.89S
6HR MIN TEMP:  65; 6HR MAX TEMP:  77; 6HR PCP: TRACE;

Newark         CLOUDY    63  50  62 SE9G16    29.94S
6HR MIN TEMP:  63; 6HR MAX TEMP:  71;

Laguardia      CLOUDY    65  49  56 SE10      29.94S
6HR MIN TEMP:  65; 6HR MAX TEMP:  71;

J F K          CLOUDY    62  54  74 E13       29.95S
6HR MIN TEMP:  62; 6HR MAX TEMP:  68;

Boston         CLOUDY    63  52  67 S9        29.98R
6HR MIN TEMP:  57; 6HR MAX TEMP:  63;

Pittsburg      MOCLDY    76  63  64 SW9       29.75R
6HR MIN TEMP:  72; 6HR MAX TEMP:  79;

Akron          PTCLDY    75  61  61 SW9       29.73R
6HR MIN TEMP:  71; 6HR MAX TEMP:  81;

Cleveland      CLOUDY    65  62  90 N6        29.77R
6HR MIN TEMP:  65; 6HR MAX TEMP:  79; 6HR PCP:  1.06;

Cincinnati     MOCLDY    70  63  78 SW6       29.81R
6HR MIN TEMP:  70; 6HR MAX TEMP:  74;

Columbus       CLOUDY    73  61  66 SW8       29.77R
Detroit        CLOUDY    64  58  80 W3        29.70R
6HR MIN TEMP:  63; 6HR MAX TEMP:  78; 6HR PCP:  0.04;

Chicago O`Hare PTSUNNY   74  51  44 W10G21    29.73S
6HR MIN TEMP:  72; 6HR MAX TEMP:  77;

Minneapolis    PTSUNNY   67  42  40 NW20G29   29.73S
6HR MIN TEMP:  66; 6HR MAX TEMP:  73;

Indianapolis   TSTM      65  64  97 S8        29.78R FOG
6HR MIN TEMP:  63; 6HR MAX TEMP:  77; 6HR PCP:  0.92;

Toronto Canada CLOUDY    66  57  72 E7        29.73S

$$




USA.gov is the U.S. government's official web portal to all federal, state and local government web resources and services.